{"data":{"norad_id":66139,"epoch":"2026-09-20T03:48:06.887520Z","epoch_age_seconds":129941,"freshness":"FRESH","line1":"1 66139U 25237AB  26263.15841305  .00005370  00000+0  16999-3 0  9991","line2":"2 66139  53.1556 213.5620 0001384  88.9863 271.1299 15.34392399 52421","mean_motion":15.34392399,"eccentricity":0.0001384,"inclination_deg":53.1556,"raan_deg":213.562,"arg_perigee_deg":88.9863,"mean_anomaly_deg":271.1299,"bstar":0.00016999,"rev_number":5242,"period_min":93.84822297989,"perigee_km":461.77905665825,"apogee_km":463.67260749016,"semimajor_km":6840.8628320742,"source":"CELESTRAK","updated_at":"2026-09-21T09:00:35.811525Z"}}